Gakona, AK

12:11 AM AKDT on September 29, 2016 (GMT -0800)
Gulkana

Weather History for PAGK - January, 2012

Change the Weather History Date:

Thursday, January 12, 2012

  Actual Average Record
Temperature  
Mean Temperature 21 °F -  
Max Temperature 32 °F 0 °F 43 °F (1984)
Min Temperature 10 °F -14 °F -57 °F (1972)
Degree Days  
Heating Degree Days 44    
Moisture  
Dew Point 12 °F    
Average Humidity 80    
Maximum Humidity 92    
Minimum Humidity 72    
Precipitation  
Precipitation 0.06 in - - ()
Snow  
Snow 0.00 in - - ()
Snow Depth 5.00 in    
Sea Level Pressure  
Sea Level Pressure 29.53 in    
Wind  
Wind Speed 9 mph (North)    
Max Wind Speed 16 mph    
Max Gust Speed 24 mph    
Visibility 7 miles    
Events Snow    
Averages and records for this station are not official NWS values.
T = Trace of Precipitation, MM = Missing Value Source: NWS Daily Summary

Daily Weather History Graph

Daily Weather History Graph

Search for Another Location

Airport or City:

Trip Planner

Search our weather history database for the weather conditions in past years. The results will help you decide how hot, cold, wet, or windy it might be!

Date:

Astronomy

Jan. 12, 2012 Rise Set
Actual Time 9:53 AM AKST 3:47 PM AKST
Civil Twilight 8:52 AM AKST 4:47 PM AKST
Nautical Twilight 7:53 AM AKST 5:47 PM AKST
Astronomical Twilight 6:59 AM AKST 6:41 PM AKST
Moon 9:44 PM AKST (1/12) 10:11 AM AKST (1/12)
Length of Visible Light 7h 54m
Length of Day
5h 53m
Waning Gibbous, 86% of the Moon is Illuminated
Jan 12
Waning Gibbous
Jan 16
Last Quarter
Jan 22
New
Jan 30
First Quarter
Feb 7
Full

Hourly Weather History & Observations

Time (AKST) Temp. Windchill Dew Point Humidity Pressure Visibility Wind Dir Wind Speed Gust Speed Precip Events Conditions
12:53 AM 30.9 °F 20.2 °F 24.1 °F 76% 29.52 in 10.0 mi SSE 15.0 mph - N/A   Clear
1:53 AM 32.0 °F 21.2 °F 24.1 °F 73% 29.49 in 10.0 mi SSE 16.1 mph 24.2 mph N/A   Clear
3:53 AM 26.1 °F 19.4 °F 21.9 °F 84% 29.48 in 10.0 mi South 5.8 mph - N/A   Clear
4:53 AM 27.0 °F 18.0 °F 21.0 °F 78% 29.46 in 10.0 mi SE 9.2 mph - N/A   Clear
5:53 AM 28.0 °F 20.8 °F 21.0 °F 75% 29.45 in 10.0 mi East 6.9 mph - N/A   Clear
5:58 AM 28.4 °F 20.4 °F 21.2 °F 74% 29.37 in 10.0 mi East 8.1 mph - N/A   Scattered Clouds
6:53 AM 24.1 °F 17.0 °F 18.0 °F 77% 29.44 in 10.0 mi NE 5.8 mph - N/A   Scattered Clouds
7:53 AM 27.0 °F 19.5 °F 19.0 °F 72% 29.42 in 10.0 mi East 6.9 mph - N/A   Mostly Cloudy
8:53 AM 18.0 °F 11.1 °F 12.9 °F 81% 29.43 in 10.0 mi NNW 4.6 mph - N/A   Scattered Clouds
9:53 AM 16.0 °F 5.3 °F 10.0 °F 77% 29.43 in 10.0 mi North 8.1 mph - N/A   Scattered Clouds
10:53 AM 16.0 °F 3.6 °F 10.0 °F 77% 29.44 in 10.0 mi North 10.4 mph - N/A   Scattered Clouds
11:53 AM 15.1 °F 2.5 °F 9.0 °F 77% 29.44 in 10.0 mi North 10.4 mph - N/A   Scattered Clouds
12:53 PM 15.1 °F 1.8 °F 9.0 °F 77% 29.45 in 10.0 mi North 11.5 mph - N/A   Mostly Cloudy
1:53 PM 16.0 °F 2.9 °F 10.0 °F 77% 29.45 in 10.0 mi North 11.5 mph - N/A   Mostly Cloudy
2:53 PM 17.1 °F 4.3 °F 10.0 °F 74% 29.45 in 10.0 mi North 11.5 mph - N/A   Mostly Cloudy
3:53 PM 18.0 °F 5.4 °F 10.9 °F 74% 29.47 in 10.0 mi North 11.5 mph - N/A   Mostly Cloudy
4:53 PM 17.1 °F 5.0 °F 10.9 °F 77% 29.49 in 10.0 mi North 10.4 mph - N/A   Overcast
5:53 PM 16.0 °F 2.3 °F 10.0 °F 77% 29.51 in 10.0 mi North 12.7 mph - N/A   Overcast
6:53 PM 15.1 °F 5.2 °F 9.0 °F 77% 29.55 in 10.0 mi North 6.9 mph - N/A   Overcast
7:53 PM 14.0 °F 5.1 °F 8.1 °F 77% 29.59 in 4.0 mi NW 5.8 mph - 0.00 in Snow Light Snow
8:16 PM 12.2 °F 6.1 °F 8.6 °F 85% 29.49 in 1.8 mi NNW 3.5 mph - 0.00 in Snow Light Snow
8:33 PM 12.2 °F 6.1 °F 10.4 °F 92% 29.50 in 1.5 mi NNW 3.5 mph - 0.01 in Snow Light Snow
8:53 PM 12.9 °F 1.6 °F 8.1 °F 81% 29.65 in 1.8 mi North 8.1 mph - 0.02 in Snow Light Snow
9:25 PM 12.2 °F 1.7 °F 8.6 °F 85% 29.54 in 1.2 mi North 6.9 mph - 0.01 in Snow Light Snow
9:41 PM 12.2 °F 1.7 °F 8.6 °F 85% 29.55 in 2.5 mi North 6.9 mph - 0.01 in Snow Light Snow
9:53 PM 12.0 °F 1.5 °F 9.0 °F 88% 29.69 in 2.0 mi NNW 6.9 mph - 0.01 in Snow Light Snow
10:17 PM 12.2 °F 1.7 °F 8.6 °F 85% 29.57 in 1.5 mi North 6.9 mph - 0.01 in Snow Light Snow
10:26 PM 12.2 °F 2.9 °F 8.6 °F 85% 29.58 in 1.5 mi NNW 5.8 mph - 0.01 in Snow Light Snow
10:53 PM 10.9 °F - 8.1 °F 88% 29.74 in 1.8 mi Calm Calm - 0.02 in Snow Light Snow
11:35 PM 10.4 °F -0.4 °F 6.8 °F 85% 29.64 in 2.0 mi NW 6.9 mph - 0.01 in Snow Light Snow
11:43 PM 10.4 °F 0.8 °F 8.6 °F 92% 29.65 in 1.5 mi NW 5.8 mph - 0.01 in Snow Light Snow
11:50 PM 10.4 °F -1.5 °F 6.8 °F 85% 29.66 in 2.0 mi NNW 8.1 mph - 0.01 in Snow Light Snow
11:53 PM 10.9 °F 1.4 °F 7.0 °F 84% 29.80 in 2.5 mi NW 5.8 mph - 0.01 in Snow Light Snow